Weather History for McGuire AFB, NJ

Change the Weather History Date:

Tuesday, August 20, 2013

  Actual Average Record
Temperature  
Mean Temperature 74 °F -  
Max Temperature 86 °F 82 °F 92 °F (2010)
Min Temperature 62 °F 63 °F 51 °F (1998)
Cooling Degree Days 9    
Growing Degree Days 24 (Base 50)    
Moisture  
Dew Point 65 °F    
Average Humidity 86    
Maximum Humidity 100    
Minimum Humidity 51    
Precipitation  
Precipitation 0.00 in - - ()
Sea Level Pressure  
Sea Level Pressure 30.10 in    
Wind  
Wind Speed 3 mph (WSW)    
Max Wind Speed 8 mph    
Max Gust Speed -    
Visibility 6 miles    
Events Fog , Rain    
Averages and records for this station are not official NWS values.
T = Trace of Precipitation, MM = Missing Value Source: NWS Daily Summary

Daily Weather History Graph

Daily Weather History Graph

Search for Another Location

Airport:

Trip Planner

Search our weather history database for the weather conditions in past years. The results will help you decide how hot, cold, wet, or windy it might be!

Date:

Astronomy

Aug. 20, 2013 Rise Set
Actual Time 6:14 AM EDT 7:47 PM EDT
Civil Twilight 5:46 AM EDT 8:16 PM EDT
Nautical Twilight 5:11 AM EDT 8:50 PM EDT
Astronomical Twilight 4:35 AM EDT 9:26 PM EDT
Moon 7:17 PM EDT (8/20) 5:41 AM EDT (8/20)
Length of Visible Light 14h 29m
Length of Day
13h 32m
Full, 100% of the Moon is Illuminated
Aug 20
Full
Aug 20
Full
Aug 28
Last Quarter
Sep 5
New
Sep 12
First Quarter

Hourly Weather History & Observations

Time (EDT) Temp. Heat Index Dew Point Humidity Pressure Visibility Wind Dir Wind Speed Gust Speed Precip Events Conditions
12:58 AM 66.0 °F - 63.7 °F 92% 30.08 in 10.0 mi West 3.5 mph - N/A   Clear
1:58 AM 65.5 °F - 64.0 °F 95% 30.08 in 10.0 mi WSW 3.5 mph - N/A   Clear
2:58 AM 65.3 °F - 64.2 °F 96% 30.08 in 10.0 mi West 3.5 mph - N/A   Clear
3:20 AM 64.4 °F - 62.6 °F 94% 30.07 in 9.0 mi WSW 4.6 mph - N/A   Clear
3:49 AM 62.6 °F - 62.6 °F 100% 30.07 in 7.0 mi SW 4.6 mph - N/A   Clear
3:58 AM 63.3 °F - 62.8 °F 98% 30.08 in 7.0 mi SW 3.5 mph - N/A   Clear
4:00 AM 62.6 °F - 62.6 °F 100% 30.07 in 7.0 mi SW 4.6 mph - N/A   Clear
4:13 AM 62.6 °F - 62.6 °F 100% 30.07 in 7.0 mi SW 4.6 mph - N/A   Clear
4:32 AM 64.4 °F - 62.6 °F 94% 30.07 in 7.0 mi SW 2.3 mph - N/A   Clear
4:42 AM 62.6 °F - 62.6 °F 100% 30.07 in 7.0 mi SW 2.3 mph - N/A   Clear
4:50 AM 62.6 °F - 62.6 °F 100% 30.07 in 4.0 mi SW 2.3 mph - N/A   Clear
4:52 AM 62.6 °F - 62.6 °F 100% 30.07 in 3.0 mi SW 2.3 mph - N/A   Clear
4:53 AM 62.6 °F - 62.6 °F 100% 30.07 in 3.0 mi SW 2.3 mph - N/A Rain Light Rain
4:58 AM 62.8 °F - 62.4 °F 99% 30.08 in 3.0 mi SW 2.3 mph - 0.00 in Rain Light Rain
4:59 AM 62.6 °F - 62.6 °F 100% 30.07 in 3.0 mi SW 2.3 mph - N/A Rain Light Rain
5:00 AM 62.6 °F - 62.6 °F 100% 30.07 in 4.0 mi SW 2.3 mph - N/A   Light Drizzle
5:03 AM 62.6 °F - 62.6 °F 100% 30.07 in 7.0 mi SW 2.3 mph - N/A   Light Drizzle
5:05 AM 62.6 °F - 62.6 °F 100% 30.07 in 7.0 mi SW 2.3 mph - N/A   Partly Cloudy
5:07 AM 62.6 °F - 62.6 °F 100% 30.07 in 7.0 mi SW 3.5 mph - N/A   Partly Cloudy
5:14 AM 62.6 °F - 62.6 °F 100% 30.07 in 6.0 mi SW 3.5 mph - N/A   Mostly Cloudy
5:20 AM 62.6 °F - 62.6 °F 100% 30.07 in 6.0 mi WSW 3.5 mph - N/A   Mostly Cloudy
5:27 AM 62.6 °F - 62.6 °F 100% 30.07 in 5.0 mi WSW 3.5 mph - N/A   Mostly Cloudy
5:31 AM 64.4 °F - 62.6 °F 94% 30.07 in 3.0 mi WSW 3.5 mph - N/A   Overcast
5:34 AM 64.4 °F - 64.4 °F 100% 30.07 in 2.5 mi West 2.3 mph - N/A   Overcast
5:37 AM 64.4 °F - 64.4 °F 100% 30.08 in 2.0 mi West 2.3 mph - N/A   Overcast
5:38 AM 64.4 °F - 64.4 °F 100% 30.08 in 1.8 mi WSW 2.3 mph - N/A   Overcast
5:40 AM 64.4 °F - 64.4 °F 100% 30.08 in 1.5 mi WSW 2.3 mph - N/A   Overcast
5:42 AM 64.4 °F - 64.4 °F 100% 30.08 in 1.2 mi WSW 2.3 mph - N/A   Overcast
5:43 AM 64.4 °F - 64.4 °F 100% 30.08 in 1.0 mi WSW 2.3 mph - N/A   Overcast
5:44 AM 64.4 °F - 64.4 °F 100% 30.08 in 1.0 mi WSW 2.3 mph - N/A   Overcast
5:45 AM 64.4 °F - 64.4 °F 100% 30.08 in 0.8 mi WSW 2.3 mph - N/A   Mist
5:46 AM 64.4 °F - 64.4 °F 100% 30.08 in 0.8 mi WSW 2.3 mph - N/A   Mist
5:47 AM 64.4 °F - 64.4 °F 100% 30.08 in 0.5 mi WSW 2.3 mph - N/A Fog Fog
5:50 AM 64.4 °F - 64.4 °F 100% 30.08 in 0.5 mi WSW 2.3 mph - N/A Fog Fog
5:51 AM 64.4 °F - 64.4 °F 100% 30.08 in 0.2 mi WSW 2.3 mph - N/A Fog Fog
5:58 AM 64.4 °F - 64.4 °F 100% 30.09 in 0.2 mi SW 2.3 mph - 0.00 in Fog Fog
6:06 AM 64.4 °F - 64.4 °F 100% 30.09 in 0.2 mi WSW 3.5 mph - N/A Fog Fog
6:58 AM 64.4 °F - 64.2 °F 99% 30.11 in 0.2 mi West 3.5 mph - N/A Fog Fog
7:04 AM 64.4 °F - 64.4 °F 100% 30.11 in 0.2 mi West 3.5 mph - N/A Fog Fog
7:05 AM 64.4 °F - 64.4 °F 100% 30.10 in 0.2 mi West 3.5 mph - N/A Fog Fog
7:18 AM 64.4 °F - 64.4 °F 100% 30.11 in 0.5 mi WSW 3.5 mph - N/A Fog Fog
7:21 AM 64.4 °F - 64.4 °F 100% 30.11 in 0.5 mi WSW 2.3 mph - N/A Fog Fog
7:24 AM 66.2 °F - 64.4 °F 94% 30.11 in 0.8 mi WSW 2.3 mph - N/A   Mist
7:25 AM 66.2 °F - 64.4 °F 94% 30.11 in 0.8 mi WSW 2.3 mph - N/A   Mist
7:26 AM 66.2 °F - 64.4 °F 94% 30.11 in 0.8 mi WSW 3.5 mph - N/A   Mist
7:27 AM 66.2 °F - 64.4 °F 94% 30.11 in 1.0 mi West 2.3 mph - N/A   Mist
7:28 AM 66.2 °F - 64.4 °F 94% 30.11 in 1.2 mi WSW 2.3 mph - N/A   Partly Cloudy
7:30 AM 66.2 °F - 64.4 °F 94% 30.11 in 1.8 mi WSW 3.5 mph - N/A   Partly Cloudy
7:31 AM 66.2 °F - 64.4 °F 94% 30.11 in 2.0 mi WSW 3.5 mph - N/A   Partly Cloudy
7:34 AM 66.2 °F - 66.2 °F 100% 30.11 in 3.0 mi WSW 3.5 mph - N/A   Partly Cloudy
7:58 AM 66.6 °F - 66.2 °F 99% 30.13 in 7.0 mi WSW 4.6 mph - N/A   Clear
8:01 AM 66.2 °F - 66.2 °F 100% 30.12 in 7.0 mi WSW 4.6 mph - N/A   Partly Cloudy
8:58 AM 71.8 °F - 68.2 °F 88% 30.13 in 10.0 mi WNW 3.5 mph - N/A   Clear
9:58 AM 76.8 °F - 68.2 °F 75% 30.14 in 10.0 mi West 3.5 mph - N/A   Clear
10:41 AM 78.8 °F - 66.2 °F 65% 30.13 in 10.0 mi WNW 3.5 mph - N/A Rain Light Rain
10:53 AM 80.6 °F 83.2 °F 68.0 °F 65% 30.13 in 10.0 mi NW 1.2 mph - N/A   Clear
10:58 AM 80.2 °F 82.6 °F 66.9 °F 64% 30.14 in 10.0 mi WNW 3.5 mph - 0.00 in   Clear
11:00 AM 80.6 °F 82.7 °F 66.2 °F 61% 30.13 in 10.0 mi NW 2.3 mph - N/A Rain Light Rain
11:23 AM 80.6 °F 82.7 °F 66.2 °F 61% 30.13 in 10.0 mi West 2.3 mph - N/A   Clear
11:25 AM 80.6 °F 82.7 °F 66.2 °F 61% 30.13 in 10.0 mi WSW 4.6 mph - N/A Rain Light Rain
11:27 AM 82.4 °F 85.4 °F 68.0 °F 62% 30.13 in 10.0 mi SW 3.5 mph - N/A   Clear
11:28 AM 82.4 °F 85.4 °F 68.0 °F 62% 30.13 in 10.0 mi Variable 2.3 mph - N/A Rain Light Rain
11:58 AM 82.8 °F 85.3 °F 66.9 °F 59% 30.14 in 10.0 mi West 5.8 mph - 0.00 in Rain Light Rain
12:49 PM 84.2 °F 86.6 °F 66.2 °F 55% 30.12 in 10.0 mi North 6.9 mph - N/A   Scattered Clouds
12:52 PM 84.2 °F 86.6 °F 66.2 °F 55% 30.11 in 10.0 mi North 3.5 mph - N/A Rain Light Rain
12:58 PM 83.7 °F 85.8 °F 66.0 °F 55% 30.12 in 10.0 mi Variable 4.6 mph - 0.00 in Rain Light Rain
1:08 PM 84.2 °F 86.6 °F 66.2 °F 55% 30.11 in 10.0 mi Variable 2.3 mph - N/A   Mostly Cloudy
1:20 PM 84.2 °F 86.6 °F 66.2 °F 55% 30.11 in 10.0 mi NW 3.5 mph - N/A Rain Light Rain
1:24 PM 84.2 °F 86.6 °F 66.2 °F 55% 30.11 in 10.0 mi Variable 4.6 mph - N/A   Mostly Cloudy
1:28 PM 84.2 °F 86.6 °F 66.2 °F 55% 30.11 in 10.0 mi Variable 4.6 mph - N/A Rain Light Rain
1:40 PM 84.2 °F 86.6 °F 66.2 °F 55% 30.11 in 10.0 mi Variable 2.3 mph - N/A   Partly Cloudy
1:58 PM 85.5 °F 87.4 °F 65.5 °F 51% 30.11 in 10.0 mi NW 4.6 mph - 0.00 in   Partly Cloudy
2:58 PM 85.6 °F 88.2 °F 66.6 °F 53% 30.10 in 10.0 mi Variable 3.5 mph - N/A   Partly Cloudy
3:58 PM 86.0 °F 88.2 °F 66.0 °F 51% 30.09 in 10.0 mi West 8.1 mph - N/A   Scattered Clouds
4:58 PM 85.8 °F 87.9 °F 66.0 °F 51% 30.08 in 10.0 mi SW 6.9 mph - N/A   Clear
5:58 PM 81.5 °F 83.9 °F 66.9 °F 61% 30.08 in 10.0 mi SW 5.8 mph - N/A   Clear
6:58 PM 82.2 °F 85.3 °F 68.4 °F 63% 30.08 in 10.0 mi SSW 2.3 mph - N/A   Overcast
7:58 PM 78.6 °F - 68.2 °F 70% 30.09 in 10.0 mi SW 5.8 mph - N/A   Partly Cloudy
8:58 PM 75.6 °F - 68.4 °F 78% 30.11 in 10.0 mi WSW 5.8 mph - N/A   Mostly Cloudy
9:58 PM 73.8 °F - 67.8 °F 82% 30.13 in 10.0 mi SW 8.1 mph - N/A   Scattered Clouds
10:58 PM 72.9 °F - 68.0 °F 85% 30.14 in 10.0 mi SW 5.8 mph - N/A   Clear
11:58 PM 71.2 °F - 68.2 °F 90% 30.15 in 10.0 mi WSW 2.3 mph - N/A   Clear